TimeMDT,TemperatureF,Dew PointF,Humidity,Sea Level PressureIn,VisibilityMPH,Wind Direction,Wind SpeedMPH,Gust SpeedMPH,PrecipitationIn,Events,Conditions,WindDirDegrees,DateUTC
12:52 AM,19.9,1.9,46,29.64,10.0,Calm,Calm,-,N/A,,Clear,0,2013-03-23 06:52:00
1:52 AM,27.0,5.0,39,29.62,10.0,North,11.5,-,N/A,,Clear,350,2013-03-23 07:52:00
2:52 AM,21.0,5.0,50,29.67,10.0,ESE,4.6,-,N/A,,Clear,110,2013-03-23 08:52:00
3:52 AM,14.0,3.0,62,29.68,10.0,South,6.9,-,N/A,,Clear,180,2013-03-23 09:52:00
4:52 AM,12.9,9.0,84,29.68,10.0,SSE,9.2,-,N/A,,Clear,160,2013-03-23 10:52:00
5:52 AM,17.1,10.9,77,29.64,10.0,SE,12.7,-,N/A,,Clear,130,2013-03-23 11:52:00
6:52 AM,15.1,9.0,77,29.65,10.0,SSE,9.2,-,N/A,,Clear,160,2013-03-23 12:52:00
7:52 AM,19.9,7.0,57,29.65,10.0,SSW,8.1,-,N/A,,Clear,200,2013-03-23 13:52:00
8:52 AM,30.9,1.9,29,29.63,10.0,WSW,23.0,27.6,N/A,,Clear,250,2013-03-23 14:52:00
9:52 AM,28.9,5.0,36,29.65,10.0,North,9.2,-,N/A,,Overcast,350,2013-03-23 15:52:00
10:28 AM,32.0,3.2,30,29.67,10.0,NNW,9.2,28.8,N/A,,Overcast,340,2013-03-23 16:28:00
10:52 AM,26.1,3.9,39,29.71,10.0,North,20.7,26.5,N/A,,Overcast,360,2013-03-23 16:52:00
11:01 AM,23.0,12.2,63,29.70,1.8,North,23.0,29.9,0.00,Snow,Light Snow,360,2013-03-23 17:01:00
11:13 AM,21.2,14.0,74,29.71,1.0,North,15.0,25.3,0.00,Snow,Light Snow,360,2013-03-23 17:13:00
11:28 AM,19.4,14.0,80,29.73,0.5,North,16.1,33.4,0.00,Snow,Snow,350,2013-03-23 17:28:00
11:35 AM,19.4,12.2,74,29.73,0.2,North,20.7,28.8,0.00,Snow,Heavy Snow,360,2013-03-23 17:35:00
11:52 AM,19.9,10.9,68,29.78,0.5,North,19.6,27.6,0.02,Snow,Snow,10,2013-03-23 17:52:00
12:01 PM,21.2,8.6,58,29.73,2.0,North,23.0,31.1,0.00,Snow,Light Snow,350,2013-03-23 18:01:00
12:03 PM,21.2,6.8,54,29.73,3.0,North,16.1,31.1,0.00,Snow,Light Snow,350,2013-03-23 18:03:00
12:20 PM,24.8,6.8,46,29.73,10.0,North,15.0,-,0.00,,Overcast,360,2013-03-23 18:20:00
12:52 PM,25.0,3.9,41,29.82,10.0,North,19.6,33.4,0.00,,Overcast,360,2013-03-23 18:52:00
1:52 PM,25.0,7.0,46,29.83,10.0,North,25.3,32.2,N/A,,Overcast,10,2013-03-23 19:52:00
2:52 PM,26.1,1.0,34,29.85,10.0,NNE,21.9,35.7,N/A,,Overcast,20,2013-03-23 20:52:00
3:52 PM,25.0,3.0,39,29.92,10.0,North,23.0,29.9,N/A,,Overcast,10,2013-03-23 21:52:00
4:52 PM,23.0,6.1,48,29.98,10.0,NNE,20.7,26.5,N/A,,Mostly Cloudy,20,2013-03-23 22:52:00
5:52 PM,18.0,10.9,74,30.01,10.0,ESE,13.8,-,N/A,,Overcast,110,2013-03-23 23:52:00
6:52 PM,18.0,7.0,62,30.06,10.0,ESE,10.4,-,N/A,,Overcast,120,2013-03-24 00:52:00
7:52 PM,16.0,7.0,68,30.09,10.0,SSE,8.1,-,0.00,,Overcast,150,2013-03-24 01:52:00
8:52 PM,14.0,3.9,64,30.08,10.0,SSE,6.9,-,N/A,,Mostly Cloudy,160,2013-03-24 02:52:00
9:52 PM,10.0,3.9,76,30.14,10.0,South,6.9,-,N/A,,Partly Cloudy,170,2013-03-24 03:52:00
10:52 PM,7.0,1.9,80,30.19,10.0,SSW,4.6,-,N/A,,Clear,200,2013-03-24 04:52:00
11:52 PM,6.1,1.9,83,30.24,10.0,SSE,8.1,-,N/A,,Clear,160,2013-03-24 05:52:00